Starlink 30271

operational
NORAD ID: 57669 Int'l Des: 2023-124 Owner: SPXS Country: US Constellation: starlink
LEOCIRCULAR

Über Starlink 30271

Beschreibung wird geladen...

Live-Position

3D-Globus wird geladen...

Nächste Überflüge

Höhenverlauf

Altitude vs Time

uPlot chart will show altitude changes over time

Zweizeiliger Elementsatz

1 57669U 23124G 25353.83283593 .00000376 00000-0 24837-4 0 9998
2 57669 53.1590 217.9772 0001104 68.8505 291.2614 15.30189389131334
Epoch: 19. Dez. 2025 • Age: 7 hours

Aktueller Status

Höhe 480.2 km
Geschwindigkeit 7.63 km/s
Subsatellitenpunkt 49.66°N, 150.53°E
Startdatum 22. Aug. 2023
Alter 2.3 years
Typ internet

Technische Details

Klassifizierung Payload
Masse 730.00 kg
Trockenmasse 700.00 kg
Gesamtmasse 730.00 kg
Länge 0.30 m
Durchmesser 4.10 m
Spannweite 29.00 m
Form Box + pan
Hersteller SPXS
Bus-Typ Starlink V2M
Phasenstatus In Orbit
Besitzer/Staat SPXS/US

Große Konstellationen

Loading constellations...